Hourly Data Report for September 09, 2017

All times are specified in Local Standard Time (LST). Add 1 hour to adjust for Daylight Saving Time where and when it is observed.

MIRAMICHI RCS
NEW BRUNSWICK

47°00'34.000" N
65°27'54.000" W
33.00 m
8100989
71744
ACQ

Download Data

Hourly Data (September 2017)
Hourly Data Report for September 9, 2017
Temp Definition
°C
Dew Point Temp Definition
°C
Rel Hum Definition
%
Wind Dir Definition
10's deg

Wind Spd Definition
km/h
Visibility Definition
km
Stn Press Definition
kPa
Hmdx Definition


Wind Chill Definition


Weather Definition


TIME
00:00 13.5 12.4 93   0   101.44     LegendNANA
01:00 12.3 11.9 97 32 3   101.45     LegendNANA
02:00 12.3 11.7 96 14 2   101.48     LegendNANA
03:00 12.4 12.1 98 36 5   101.49     LegendNANA
04:00 12.4 11.7 95 32 2   101.52     LegendNANA
05:00 12.6 11.9 96 34 5   101.57     LegendNANA
06:00 12.6 11.9 95 2 7   101.63     LegendNANA
07:00 12.9 11.7 93 2 8   101.71     LegendNANA
08:00 13.2 11.6 90 2 8   101.77     LegendNANA
09:00 13.9 11.7 87 3 11   101.82     LegendNANA
10:00 14.6 11.9 84 3 12   101.85     LegendNANA
11:00 15.3 11.9 80 5 6   101.88     LegendNANA
12:00 16.9 12.0 73 3 8   101.86     LegendNANA
13:00 18.2 11.9 66 5 13   101.85     LegendNANA
14:00 18.4 13.0 71 6 14   101.83     LegendNANA
15:00 18.4 11.7 65 6 17   101.82     LegendNANA
16:00 17.0 11.5 70 6 21   101.84     LegendNANA
17:00 16.4 11.9 75 7 23   101.88     LegendNANA
18:00 15.5 12.2 81 7 16   101.90     LegendNANA
19:00 14.0 11.2 83 6 10   101.95     LegendNANA
20:00 12.8 11.1 89 4 9   102.00     LegendNANA
21:00 12.4 11.1 92 1 6   102.03     LegendNANA
22:00 11.9 11.0 94 36 5   102.05     LegendNANA
23:00 11.4 10.5 94 35 5   102.06     LegendNANA

Notes on Data Quality.

Legend

  • E = Estimated
  • M = Missing
  • NA = Not Available
  • ‡ = Partner data that is not subject to review by the National Climate Archives
Date modified: